M I D A S
Marine Information and Data Acquisition System
Tripno 758 of the Zeeleeuw from 2004-07-23 09:13:46 to 2004-07-23 13:34:26
Back to CruiseResearch ActivitiesStationsMapUnderway DataData graphs

EquipmentUnitsComment
TimeDGPSUTC
LatitudeDGPSDM.mWGS84
LongitudeDGPSDM.mWGS84
TemperatureSBE03/SBE38deg celciusITS90
ConductivitySBE21S/mITS90
SalinitySBE21 Practical Salinity Units
ChlorophylAChelsea fluorimeterg/lCalibrated in Aceton
Missing or incorrect values are displayed as -999
Sea surface data collected by the RV Zeeleeuw from 2004-07-23 09:13:46 to 2004-07-23 13:34:26
Time Latitude Longitude Temperature Conductivity Salinity ChlorophylA
2004-07-23 09:14:50 51°13.597 2°56.097 23.015176 0.111099 0.54229 -0.74754
2004-07-23 09:15:50 51°13.608 2°56.057 23.001366 0.111099 0.542327 -0.71383
2004-07-23 09:16:50 51°13.634 2°55.97 23.033519 0.111099 0.542364 -0.71383
2004-07-23 09:17:50 51°13.664 2°55.864 23.039607 0.111099 0.542393 -0.74754
2004-07-23 09:18:50 51°13.678 2°55.758 23.038133 0.111099 0.542431 -0.71383
2004-07-23 09:19:49 51°13.695 2°55.761 23.162528 0.111099 0.542475 -0.71383
2004-07-23 09:20:49 51°13.768 2°55.697 23.009396 0.111099 0.542483 -0.74754
2004-07-23 09:21:49 51°13.884 2°55.596 23.038133 0.111099 0.542542 -0.74754
2004-07-23 09:22:50 51°14.026 2°55.511 23.035535 0.111099 0.542594 -0.74754
2004-07-23 09:23:50 51°14.173 2°55.4 23.077865 0.111099 0.542639 -0.74754
2004-07-23 09:24:50 51°14.307 2°55.175 22.948355 0.111099 0.542691 -0.74754
2004-07-23 09:25:50 51°14.461 2°54.932 23.015408 0.111099 0.542773 -0.71383
2004-07-23 09:26:50 51°14.637 2°54.73 23.022467 0.110995 0.542312 -0.71383
2004-07-23 09:27:50 51°14.827 2°54.562 23.107737 0.110995 0.542423 -0.781249
2004-07-23 09:28:50 51°15.013 2°54.396 23.058487 0.110995 0.542497 -0.74754
2004-07-23 09:29:50 51°15.201 2°54.24 23.124934 0.110995 0.542602 -0.74754
2004-07-23 09:30:50 51°15.385 2°54.064 23.115368 0.110995 0.542661 -0.781249
2004-07-23 09:31:50 51°15.582 2°53.914 23.0774 0.110995 0.542751 -0.71383
2004-07-23 09:32:48 51°15.771 2°53.767 23.127645 0.110891 0.542282 -0.74754
2004-07-23 09:33:50 51°15.972 2°53.607 23.120984 0.110892 0.542364 -0.781249
2004-07-23 09:34:50 51°16.165 2°53.45 23.088676 0.110892 0.542438 -0.71383
2004-07-23 09:35:50 51°16.357 2°53.289 23.113586 0.110892 0.54252 -0.74754
2004-07-23 09:36:50 51°16.545 2°53.115 23.125476 0.110892 0.542602 -0.74754
2004-07-23 09:37:50 51°16.734 2°52.945 23.131285 0.110892 0.542676 -0.74754
2004-07-23 09:38:50 51°16.922 2°52.79 23.099796 0.110788 0.542237 -0.71383
2004-07-23 09:39:50 51°17.112 2°52.627 23.119667 0.110788 0.542326 -0.74754
2004-07-23 09:40:50 51°17.301 2°52.464 23.154593 0.110788 0.542423 -0.71383
2004-07-23 09:41:50 51°17.426 2°52.176 23.1211 0.110788 0.542498 -0.74754
2004-07-23 09:42:50 51°17.52 2°51.85 23.1405 0.110788 0.542602 -0.74754
2004-07-23 09:43:51 51°17.603 2°51.51 23.14805 0.110684 0.542178 -0.74754
2004-07-23 09:44:50 51°17.69 2°51.176 23.177932 0.110684 0.542312 -0.74754
2004-07-23 09:45:50 51°17.765 2°50.829 23.152618 0.110684 0.542431 -0.74754
2004-07-23 09:46:50 51°17.842 2°50.481 23.153509 0.11058 0.542036 -0.74754
2004-07-23 09:47:50 51°17.916 2°50.136 23.209387 0.11058 0.542171 -0.74754
2004-07-23 09:48:50 51°17.99 2°49.789 23.18095 0.11058 0.542305 -0.781249
2004-07-23 09:49:50 51°18.064 2°49.443 23.192906 0.110476 0.541924 -0.781249
2004-07-23 09:50:50 51°18.144 2°49.097 23.206524 0.110476 0.542074 -0.71383
2004-07-23 09:51:51 51°18.227 2°48.75 23.218128 0.110476 0.542216 -0.74754
2004-07-23 09:52:50 51°18.305 2°48.406 23.211166 0.110372 0.541835 -0.74754
2004-07-23 09:53:50 51°18.382 2°48.054 23.244269 0.110372 0.542 -0.74754
2004-07-23 09:54:50 51°18.439 2°47.693 23.216117 0.110372 0.542142 -0.71383
2004-07-23 09:55:50 51°18.496 2°47.332 23.225708 0.110268 0.541776 -0.680121
2004-07-23 09:56:50 51°18.548 2°46.971 23.225786 0.110268 0.541925 -0.71383
2004-07-23 09:57:50 51°18.607 2°46.611 23.240093 0.110268 0.542075 -0.74754
2004-07-23 09:58:51 51°18.675 2°46.247 23.263173 0.110268 0.542233 -0.74754
2004-07-23 09:59:50 51°18.741 2°45.893 23.26526 0.110164 0.541859 -0.74754
2004-07-23 10:00:50 51°18.807 2°45.531 23.278787 0.110164 0.542009 -0.71383
2004-07-23 10:01:50 51°18.878 2°45.171 23.285936 0.110164 0.542174 -0.71383
2004-07-23 10:02:50 51°18.951 2°44.811 23.28949 0.11006 0.5418 -0.74754
2004-07-23 10:03:50 51°19.026 2°44.447 23.304172 0.11006 0.541965 -0.74754
2004-07-23 10:04:50 51°19.098 2°44.088 23.321283 0.109956 0.541598 -0.74754
2004-07-23 10:05:50 51°19.169 2°43.732 23.310314 0.109956 0.541756 -0.74754
2004-07-23 10:06:50 51°19.238 2°43.377 23.308614 0.109956 0.541913 -0.71383
2004-07-23 10:07:50 51°19.306 2°43.021 23.326381 0.109852 0.541539 -0.71383
2004-07-23 10:08:51 51°19.375 2°42.657 23.321128 0.109852 0.541697 -0.71383
2004-07-23 10:09:50 51°19.442 2°42.306 23.316725 0.109748 0.541337 -0.74754
2004-07-23 10:10:55 51°19.516 2°41.918 23.346653 0.109748 0.541525 -0.71383
2004-07-23 10:11:55 51°19.587 2°41.561 23.337271 0.109644 0.54115 -0.71383
2004-07-23 10:12:54 51°19.658 2°41.205 23.355764 0.109644 0.54133 -0.71383
2004-07-23 10:13:58 51°19.735 2°40.819 23.370354 0.109644 0.541503 -0.71383
2004-07-23 10:15:00 51°19.811 2°40.441 23.389958 0.10954 0.541143 -0.74754
2004-07-23 10:16:00 51°19.88 2°40.074 23.367228 0.10954 0.541309 -0.74754
2004-07-23 10:17:00 51°19.949 2°39.71 23.39644 0.109436 0.540956 -0.74754
2004-07-23 10:18:00 51°20.019 2°39.347 23.401031 0.109436 0.541114 -0.71383
2004-07-23 10:19:00 51°20.088 2°38.984 23.407666 0.109436 0.541288 -0.71383
2004-07-23 10:20:00 51°20.157 2°38.62 23.407589 0.109332 0.540919 -0.680121
2004-07-23 10:21:00 51°20.228 2°38.257 23.435165 0.109332 0.5411 -0.74754
2004-07-23 10:22:00 51°20.297 2°37.894 23.427144 0.109228 0.540716 -0.71383
2004-07-23 10:23:00 51°20.367 2°37.532 23.440294 0.109228 0.54089 -0.71383
2004-07-23 10:24:03 51°20.451 2°37.159 23.435551 0.109124 0.540529 -0.71383
2004-07-23 10:25:03 51°20.553 2°36.822 23.453903 0.109124 0.54068 -0.71383
2004-07-23 10:26:05 51°20.681 2°36.497 23.485161 0.109124 0.540846 -0.71383
2004-07-23 10:27:04 51°20.807 2°36.192 23.440062 0.10902 0.540454 -0.71383
2004-07-23 10:28:04 51°20.955 2°35.911 23.441296 0.10902 0.54059 -0.74754
2004-07-23 10:29:04 51°21.134 2°35.707 23.510166 0.108916 0.540206 -0.71383
2004-07-23 10:30:04 51°21.306 2°35.484 23.479304 0.108916 0.540304 -0.74754
2004-07-23 10:31:04 51°21.478 2°35.257 23.497953 0.108916 0.540403 -0.680121
2004-07-23 10:32:04 51°21.647 2°35.025 23.487512 0.108812 0.539965 -0.71383
2004-07-23 10:33:06 51°21.825 2°34.792 23.504734 0.108812 0.540063 -0.71383
2004-07-23 10:34:04 51°21.989 2°34.569 23.526689 0.108812 0.540161 -0.74754
2004-07-23 10:35:10 51°22.154 2°34.269 23.50589 0.108708 0.539716 -0.71383
2004-07-23 10:36:10 51°22.285 2°33.97 23.536586 0.108708 0.539829 -0.74754
2004-07-23 10:37:10 51°22.373 2°33.62 23.535277 0.108708 0.539882 -0.71383
2004-07-23 10:38:09 51°22.44 2°33.264 23.542477 0.108604 0.539421 -0.74754
2004-07-23 10:39:10 51°22.509 2°32.893 23.628404 0.108604 0.53958 -0.74754
2004-07-23 10:40:10 51°22.515 2°32.503 23.542939 0.108604 0.539709 -0.71383
2004-07-23 10:41:10 51°22.52 2°32.108 23.559224 0.108604 0.539853 -0.74754
2004-07-23 10:42:09 51°22.531 2°31.717 23.548522 0.1085 0.539498 -0.71383
2004-07-23 10:43:10 51°22.542 2°31.314 23.595708 0.1085 0.539688 -0.71383
2004-07-23 10:44:10 51°22.555 2°30.915 23.581201 0.108396 0.539347 -0.71383
2004-07-23 10:45:10 51°22.575 2°30.514 23.600094 0.108396 0.539514 -0.71383
2004-07-23 10:46:10 51°22.588 2°30.125 23.594784 0.108396 0.539681 -0.74754
2004-07-23 10:47:09 51°22.599 2°29.741 23.615058 0.108292 0.539318 -0.71383
2004-07-23 10:48:10 51°22.613 2°29.34 23.619943 0.108292 0.539515 -0.71383
2004-07-23 10:49:10 51°22.623 2°28.946 23.618828 0.108292 0.53969 -0.74754
2004-07-23 10:50:10 51°22.63 2°28.553 23.622059 0.108188 0.539327 -0.74754
2004-07-23 10:51:10 51°22.633 2°28.162 23.626558 0.108188 0.539509 -0.74754
2004-07-23 10:52:09 51°22.625 2°27.775 23.650937 0.108188 0.5397 -0.74754
2004-07-23 10:53:09 51°22.609 2°27.381 23.629789 0.108084 0.539351 -0.71383
2004-07-23 10:54:14 51°22.6 2°26.954 23.655435 0.108084 0.539526 -0.71383
2004-07-23 10:55:14 51°22.6 2°26.56 23.644632 0.108084 0.539709 -0.71383
2004-07-23 10:56:14 51°22.661 2°26.2 23.621443 0.10798 0.539314 -0.74754
2004-07-23 10:57:13 51°22.841 2°26.048 23.698133 0.10798 0.539475 -0.74754
2004-07-23 10:58:13 51°23.038 2°25.932 23.700246 0.10798 0.539558 -0.74754
2004-07-23 10:59:14 51°23.244 2°25.836 23.686452 0.107876 0.539133 -0.71383
2004-07-23 11:00:14 51°23.45 2°25.789 23.716957 0.107876 0.539247 -0.74754
2004-07-23 11:01:14 51°23.654 2°25.776 23.707545 0.107876 0.539377 -0.74754
2004-07-23 11:02:14 51°23.856 2°25.794 23.710158 0.107772 0.538959 -0.74754
2004-07-23 11:03:13 51°24.053 2°25.817 23.714959 0.107772 0.539081 -0.71383
2004-07-23 11:04:14 51°24.255 2°25.854 23.728364 0.107772 0.539211 -0.71383
2004-07-23 11:05:14 51°24.452 2°25.895 23.724638 0.107772 0.539341 -0.71383
2004-07-23 11:06:14 51°24.647 2°25.932 23.729785 0.107772 0.539456 -0.74754
2004-07-23 11:07:14 51°24.842 2°25.965 23.757814 0.107772 0.539555 -0.74754
2004-07-23 11:08:14 51°25.033 2°25.995 23.745068 0.107772 0.539647 -0.71383
2004-07-23 11:09:14 51°25.223 2°26.029 23.748178 0.107668 0.53919 -0.74754
2004-07-23 11:10:14 51°25.414 2°26.06 23.750712 0.107668 0.539274 -0.71383
2004-07-23 11:11:13 51°25.602 2°26.091 23.771402 0.107668 0.539359 -0.74754
2004-07-23 11:12:13 51°25.796 2°26.129 23.757814 0.107668 0.539443 -0.71383
2004-07-23 11:13:13 51°25.991 2°26.163 23.78825 0.107668 0.539527 -0.71383
2004-07-23 11:14:14 51°26.189 2°26.212 23.769291 0.107668 0.539596 -0.71383
2004-07-23 11:15:14 51°26.384 2°26.262 23.784988 0.107668 0.53968 -0.71383
2004-07-23 11:16:14 51°26.577 2°26.314 23.797382 0.107564 0.539223 -0.71383
2004-07-23 11:17:14 51°26.772 2°26.367 23.798533 0.107564 0.5393 -0.71383
2004-07-23 11:18:14 51°26.967 2°26.416 23.808623 0.107564 0.539384 -0.71383
2004-07-23 11:19:14 51°27.164 2°26.465 23.806935 0.107564 0.539461 -0.71383
2004-07-23 11:20:14 51°27.363 2°26.529 23.824849 0.107564 0.539538 -0.74754
2004-07-23 11:21:14 51°27.561 2°26.597 23.848969 0.107564 0.539614 -0.71383
2004-07-23 11:22:14 51°27.76 2°26.664 23.818712 0.107564 0.539683 -0.71383
2004-07-23 11:23:13 51°27.955 2°26.729 23.850541 0.107564 0.539753 -0.71383
2004-07-23 11:24:14 51°28.158 2°26.8 23.837006 0.107564 0.539822 -0.74754
2004-07-23 11:25:14 51°28.359 2°26.871 23.852803 0.107564 0.539875 -0.71383
2004-07-23 11:26:14 51°28.563 2°26.931 23.849544 0.107564 0.539937 -0.74754
2004-07-23 11:27:14 51°28.689 2°26.966 23.888717 0.10746 0.539464 -0.71383
2004-07-23 11:28:14 51°28.718 2°27.029 23.889062 0.10746 0.53954 -0.71383
2004-07-23 11:29:15 51°28.711 2°27.061 23.892396 0.10746 0.539579 -0.680121
2004-07-23 11:30:14 51°28.694 2°27.08 23.897683 0.10746 0.53964 -0.71383
2004-07-23 11:31:14 51°28.676 2°27.081 23.909024 0.10746 0.539717 -0.74754
2004-07-23 11:32:14 51°28.657 2°27.067 23.90956 0.10746 0.539802 -0.71383
2004-07-23 11:33:15 51°28.638 2°27.049 23.923235 0.10746 0.539887 -0.71383
2004-07-23 11:34:14 51°28.62 2°27.034 23.923771 0.10746 0.539963 -0.74754
2004-07-23 11:35:14 51°28.684 2°27.108 23.895499 0.10746 0.54001 -0.71383
2004-07-23 11:36:14 51°28.789 2°27.37 23.914004 0.10746 0.540133 -0.74754
2004-07-23 11:37:14 51°28.87 2°27.67 23.928061 0.10746 0.540187 -0.74754
2004-07-23 11:38:14 51°28.94 2°27.974 23.923082 0.107356 0.53969 -0.74754
2004-07-23 11:39:14 51°28.985 2°28.29 23.935758 0.107356 0.539767 -0.74754
2004-07-23 11:40:14 51°29.034 2°28.604 23.925954 0.107356 0.539821 -0.74754
2004-07-23 11:41:14 51°29.08 2°28.919 23.957928 0.107356 0.539898 -0.71383
2004-07-23 11:42:14 51°29.118 2°29.238 23.940009 0.107356 0.539959 -0.71383
2004-07-23 11:43:14 51°29.156 2°29.558 23.953066 0.107356 0.540021 -0.71383
2004-07-23 11:44:14 51°29.208 2°29.874 23.98208 0.107356 0.540067 -0.71383
2004-07-23 11:45:14 51°29.252 2°30.194 23.982769 0.107356 0.540129 -0.74754
2004-07-23 11:46:15 51°29.299 2°30.516 23.977794 0.107356 0.540199 -0.71383
2004-07-23 11:47:14 51°29.346 2°30.83 23.967268 0.107356 0.54026 -0.71383
2004-07-23 11:48:14 51°29.393 2°31.151 24.00611 0.107356 0.540307 -0.71383
2004-07-23 11:49:14 51°29.441 2°31.473 23.997999 0.107356 0.540368 -0.74754
2004-07-23 11:50:14 51°29.491 2°31.795 23.99666 0.107356 0.54043 -0.74754
2004-07-23 11:51:14 51°29.542 2°32.117 23.99203 0.107356 0.540492 -0.74754
2004-07-23 11:52:14 51°29.588 2°32.444 24.016515 0.107356 0.540562 -0.74754
2004-07-23 11:53:14 51°29.633 2°32.773 24.012728 0.107356 0.540616 -0.71383
2004-07-23 11:54:15 51°29.68 2°33.101 24.023821 0.107356 0.540678 -0.680121
2004-07-23 11:55:15 51°29.722 2°33.418 24.014258 0.107356 0.540724 -0.74754
2004-07-23 11:56:14 51°29.76 2°33.725 24.046996 0.107356 0.540786 -0.71383
2004-07-23 11:57:14 51°29.789 2°34.039 24.025734 0.107356 0.540848 -0.71383
2004-07-23 11:58:15 51°29.772 2°34.377 24.052349 0.107356 0.540902 -0.71383
2004-07-23 11:59:14 51°29.75 2°34.705 24.026269 0.107356 0.540956 -0.74754
2004-07-23 12:00:14 51°29.671 2°35.029 24.048028 0.107356 0.541003 -0.74754
2004-07-23 12:01:14 51°29.53 2°35.309 24.066838 0.107356 0.541057 -0.74754
2004-07-23 12:02:14 51°29.376 2°35.58 24.07647 0.107356 0.541103 -0.71383
2004-07-23 12:03:14 51°29.218 2°35.841 24.073336 0.107356 0.54115 -0.71383
2004-07-23 12:04:14 51°29.042 2°36.075 24.107193 0.107356 0.541196 -0.71383
2004-07-23 12:05:14 51°28.858 2°36.292 24.096991 0.107356 0.541251 -0.74754
2004-07-23 12:06:15 51°28.671 2°36.514 24.086368 0.107356 0.541289 -0.74754
2004-07-23 12:07:14 51°28.481 2°36.718 24.127133 0.107356 0.541344 -0.74754
2004-07-23 12:08:14 51°28.29 2°36.929 24.101997 0.107356 0.541382 -0.74754
2004-07-23 12:09:14 51°28.101 2°37.146 24.09275 0.107356 0.541437 -0.71383
2004-07-23 12:10:14 51°27.913 2°37.365 24.133511 0.107356 0.541483 -0.74754
2004-07-23 12:11:14 51°27.719 2°37.575 24.138246 0.10746 0.542083 -0.71383
2004-07-23 12:12:14 51°27.523 2°37.779 24.121136 0.10746 0.542122 -0.74754
2004-07-23 12:13:17 51°27.316 2°37.993 24.128202 0.10746 0.542176 -0.71383
2004-07-23 12:14:18 51°27.113 2°38.194 24.156536 0.10746 0.542223 -0.74754
2004-07-23 12:15:16 51°26.919 2°38.383 24.142867 0.10746 0.542269 -0.74754
2004-07-23 12:16:18 51°26.711 2°38.582 24.166881 0.10746 0.5423 -0.71383
2004-07-23 12:17:16 51°26.515 2°38.765 24.172951 0.10746 0.542347 -0.74754
2004-07-23 12:18:23 51°26.292 2°38.981 24.16921 0.107564 0.542932 -0.71383
2004-07-23 12:19:27 51°26.077 2°39.185 24.15436 0.107564 0.542978 -0.71383
2004-07-23 12:20:32 51°25.851 2°39.372 24.205922 0.107564 0.543025 -0.71383
2004-07-23 12:21:34 51°25.637 2°39.555 24.184019 0.107564 0.543056 -0.71383
2004-07-23 12:22:34 51°25.432 2°39.729 24.211149 0.107564 0.543103 -0.71383
2004-07-23 12:23:34 51°25.228 2°39.902 24.207639 0.107668 0.543688 -0.71383
2004-07-23 12:24:34 51°25.026 2°40.084 24.202984 0.107668 0.543727 -0.74754
2004-07-23 12:25:34 51°24.823 2°40.265 24.197833 0.107668 0.543758 -0.74754
2004-07-23 12:26:32 51°24.627 2°40.442 24.221792 0.107668 0.543805 -0.71383
2004-07-23 12:27:34 51°24.418 2°40.633 24.207105 0.107668 0.543836 -0.71383
2004-07-23 12:28:34 51°24.213 2°40.813 24.230564 0.107668 0.543883 -0.71383
2004-07-23 12:29:34 51°24.004 2°40.985 24.250661 0.107668 0.543914 -0.680121
2004-07-23 12:30:34 51°23.796 2°41.157 24.256342 0.107668 0.543953 -0.71383
2004-07-23 12:31:33 51°23.593 2°41.328 24.267398 0.107772 0.544531 -0.71383
2004-07-23 12:32:39 51°23.354 2°41.483 24.253139 0.107772 0.544562 -0.74754
2004-07-23 12:33:39 51°23.137 2°41.622 24.261184 0.107772 0.544601 -0.74754
2004-07-23 12:34:39 51°22.916 2°41.746 24.237925 0.107772 0.544624 -0.74754
2004-07-23 12:35:44 51°22.657 2°41.739 24.285312 0.107772 0.544687 -0.71383
2004-07-23 12:36:43 51°22.42 2°41.721 24.280243 0.107772 0.544711 -0.74754
2004-07-23 12:37:44 51°22.173 2°41.707 24.307641 0.107772 0.54475 -0.71383
2004-07-23 12:38:44 51°21.933 2°41.696 24.335448 0.107668 0.544235 -0.74754
2004-07-23 12:39:48 51°21.676 2°41.681 24.314803 0.107668 0.544266 -0.680121
2004-07-23 12:40:48 51°21.437 2°41.705 24.31747 0.107772 0.544836 -0.71383
2004-07-23 12:41:47 51°21.205 2°41.751 24.327031 0.107668 0.544344 -0.74754
2004-07-23 12:42:48 51°20.983 2°41.88 24.34672 0.107668 0.544368 -0.71383
2004-07-23 12:43:48 51°20.785 2°42.056 24.349195 0.107668 0.544391 -0.71383
2004-07-23 12:44:48 51°20.614 2°42.286 24.344854 0.107668 0.544422 -0.74754
2004-07-23 12:45:48 51°20.476 2°42.561 24.331144 0.107668 0.544446 -0.71383
2004-07-23 12:46:48 51°20.345 2°42.844 24.362217 0.107668 0.544485 -0.74754
2004-07-23 12:47:48 51°20.232 2°43.137 24.329507 0.107668 0.544509 -0.74754
2004-07-23 12:48:46 51°20.131 2°43.423 24.35761 0.107668 0.54454 -0.781249
2004-07-23 12:49:48 51°20.035 2°43.733 24.369107 0.107668 0.544556 -0.71383
2004-07-23 12:50:48 51°19.939 2°44.033 24.35978 0.107668 0.544587 -0.71383
2004-07-23 12:51:48 51°19.845 2°44.337 24.363663 0.107668 0.54461 -0.71383
2004-07-23 12:52:48 51°19.75 2°44.643 24.383495 0.107668 0.544634 -0.71383
2004-07-23 12:53:48 51°19.656 2°44.955 24.377329 0.107668 0.54465 -0.74754
2004-07-23 12:54:48 51°19.569 2°45.272 24.419642 0.107668 0.544673 -0.74754
2004-07-23 12:55:48 51°19.477 2°45.579 24.401152 0.107668 0.544681 -0.71383
2004-07-23 12:56:48 51°19.378 2°45.885 24.41036 0.107564 0.544165 -0.71383
2004-07-23 12:57:48 51°19.284 2°46.188 24.392819 0.107668 0.54472 -0.71383
2004-07-23 12:58:48 51°19.191 2°46.488 24.430064 0.107668 0.544736 -0.71383
2004-07-23 12:59:48 51°19.098 2°46.789 24.4317 0.107668 0.544767 -0.781249
2004-07-23 13:00:48 51°19.009 2°47.093 24.442159 0.107564 0.544236 -0.74754
2004-07-23 13:01:51 51°18.929 2°47.419 24.426717 0.107564 0.544244 -0.71383
2004-07-23 13:02:52 51°18.848 2°47.738 24.466683 0.107564 0.544267 -0.71383
2004-07-23 13:03:51 51°18.772 2°48.051 24.473639 0.107564 0.544283 -0.74754
2004-07-23 13:04:56 51°18.689 2°48.399 24.464022 0.107564 0.544299 -0.74754
2004-07-23 13:05:56 51°18.607 2°48.715 24.483636 0.107564 0.544322 -0.680121
2004-07-23 13:06:56 51°18.511 2°49.026 24.476718 0.107564 0.544346 -0.71383
2004-07-23 13:07:56 51°18.411 2°49.341 24.469952 0.107564 0.544353 -0.74754
2004-07-23 13:08:56 51°18.311 2°49.66 24.497697 0.107564 0.544353 -0.74754
2004-07-23 13:09:56 51°18.214 2°49.976 24.498267 0.107564 0.544385 -0.71383
2004-07-23 13:10:56 51°18.11 2°50.288 24.502713 0.107564 0.544393 -0.781249
2004-07-23 13:11:56 51°18.008 2°50.598 24.517036 0.107564 0.544416 -0.71383
2004-07-23 13:12:56 51°17.91 2°50.91 24.572328 0.107564 0.544432 -0.71383
2004-07-23 13:13:56 51°17.803 2°51.214 24.511642 0.107564 0.544424 -0.74754
2004-07-23 13:14:56 51°17.678 2°51.505 24.526875 0.107564 0.544448 -0.74754
2004-07-23 13:15:56 51°17.554 2°51.799 24.572935 0.107564 0.544463 -0.74754
2004-07-23 13:16:56 51°17.386 2°52.047 24.557104 0.107564 0.544471 -0.71383
2004-07-23 13:17:56 51°17.184 2°52.228 24.560483 0.10746 0.54394 -0.74754
2004-07-23 13:18:56 51°16.966 2°52.363 24.607775 0.107564 0.544495 -0.71383
2004-07-23 13:19:56 51°16.744 2°52.496 24.560711 0.10746 0.543947 -0.74754
2004-07-23 13:20:56 51°16.527 2°52.643 24.55718 0.10746 0.543963 -0.71383
2004-07-23 13:21:55 51°16.317 2°52.793 24.651357 0.10746 0.543963 -0.74754
2004-07-23 13:22:56 51°16.098 2°52.947 24.579654 0.10746 0.543971 -0.71383
2004-07-23 13:23:56 51°15.887 2°53.091 24.606826 0.10746 0.543979 -0.74754
2004-07-23 13:24:56 51°15.676 2°53.234 24.603183 0.10746 0.543987 -0.74754
2004-07-23 13:26:01 51°15.463 2°53.433 24.640094 0.10746 0.543994 -0.74754
2004-07-23 13:27:02 51°15.268 2°53.629 24.61946 0.10746 0.544002 -0.74754
2004-07-23 13:28:01 51°15.08 2°53.829 24.657651 0.10746 0.54401 -0.71383
2004-07-23 13:29:00 51°14.901 2°54.041 24.642521 0.10746 0.54401 -0.74754
2004-07-23 13:30:00 51°14.737 2°54.279 24.694648 0.10746 0.544026 -0.71383
2004-07-23 13:31:00 51°14.592 2°54.54 24.652419 0.10746 0.544026 -0.71383
2004-07-23 13:32:01 51°14.466 2°54.815 24.657803 0.10746 0.544041 -0.71383
2004-07-23 13:33:00 51°14.364 2°55.04 24.686917 0.107356 0.543494 -0.71383
2004-07-23 13:34:01 51°14.273 2°55.233 24.701356 0.107356 0.543502 -0.71383